{"data":{"norad_id":64130,"epoch":"2026-05-24T22:57:06.511104Z","epoch_age_seconds":78858,"freshness":"FRESH","line1":"1 64130U 25111H   26144.95632536  .00276837  00000+0  20774-2 0  9994","line2":"2 64130  42.9994 234.1578 0001582 302.9673  57.1042 15.70983074 58487","mean_motion":15.70983074,"eccentricity":0.0001582,"inclination_deg":42.9994,"raan_deg":234.1578,"arg_perigee_deg":302.9673,"mean_anomaly_deg":57.1042,"bstar":0.0020774,"rev_number":5848,"period_min":91.662349762528,"perigee_km":355.0208062317,"apogee_km":357.15151443963,"semimajor_km":6734.2231603357,"source":"CELESTRAK","updated_at":"2026-05-25T13:38:20.272568Z"}}